Home > Time Zones > World Clock > Weather > India > Theni > Past weeks

Flag for India Weather past 2 weeks in Theni, Tamil Nadu, India

Now
82 °F

Passing clouds.


Feels Like: 88 °F
Forecast: 71 / 102 °F
Wind: 9 mph from Southwest

Location: Coimbatore / Peelamedu


UV Index: 10 (Very high)

Visibility: 3 mi


Pressure: 29.89 "Hg

Humidity: 74%

Dew point: 73 °F

Location of TheniLocation

Historic Weather in Theni

°F

Theni temperature yesterday

Maximum temperature yesterday: 99 °F (at 3:00 PM)
Minimum temperature yesterday: 77 °F (at 5:30 AM)
Average temperature yesterday: 87 °F

Past Weeks' High & Low Weather Summary

 TemperatureHumidityPressure
High99 °F (Apr 5, 3:30 PM)94% (Apr 12, 7:00 AM)30.04 "Hg (Apr 12, 7:00 AM)
Low75 °F (Apr 10, 11:30 PM)20% (Apr 7, 5:30 PM)29.74 "Hg (Apr 12, 3:30 PM)
Average86 °F58%29.89 "Hg
* Reported Apr 4 11:30 PM — Apr 19 11:30 PM, Theni, Weather by CustomWeather, © 2014

Note: Actual official high and low records may vary slightly from our data, if they occured in-between our weather recording intervals... More about our weather records

Advertising

Historic Weather Conditions — Data for Previous 24 hours

 ConditionsComfort  
Time TempWeatherWind HumidityBarometerVisibility
11:30 PM
Apr 19
82 °FPassing clouds.9 mph74%29.89 "Hg3 mi
11:00 PM82 °FPassing clouds.7 mph74%29.89 "Hg3 mi
10:30 PM82 °FHaze.8 mph74%29.89 "Hg3 mi
9:00 PM84 °FPassing clouds.10 mph66%29.86 "Hg4 mi
8:30 PM86 °FPassing clouds.9 mph62%29.86 "Hg4 mi
8:00 PM86 °FPassing clouds.9 mph66%29.83 "Hg4 mi
7:30 PM88 °FPassing clouds.8 mph52%29.83 "Hg4 mi
7:00 PM90 °FPassing clouds.8 mph46%29.83 "Hg4 mi
6:30 PM91 °FPassing clouds.7 mph38%29.80 "Hg4 mi
6:00 PM91 °FThunderstorms. Scattered clouds.7 mph41%29.80 "Hg4 mi
5:30 PM93 °FThunderstorms. Scattered clouds.13 mph39%29.77 "Hg4 mi
5:00 PM95 °FThunderstorms. Scattered clouds.7 mph41%29.77 "Hg4 mi
4:30 PM97 °FPassing clouds.12 mph34%29.77 "Hg5 mi
3:30 PM97 °FScattered clouds.3 mph32%29.80 "Hg5 mi
3:00 PM99 °FScattered clouds.2 mph33%29.80 "Hg5 mi
2:30 PM97 °FScattered clouds.2 mph37%29.80 "Hg5 mi
2:00 PM95 °FScattered clouds.9 mph39%29.83 "Hg5 mi
1:30 PM95 °FScattered clouds.7 mph39%29.86 "Hg5 mi
1:00 PM95 °FPassing clouds.5 mph41%29.86 "Hg4 mi
12:30 PM93 °FPassing clouds.6 mph44%29.89 "Hg4 mi
12:00 PM93 °FPassing clouds.7 mph41%29.92 "Hg4 mi
11:30 AM91 °FPassing clouds.6 mph46%29.92 "Hg4 mi
11:00 AM91 °FPassing clouds.No wind46%29.95 "Hg4 mi
10:30 AM90 °FPassing clouds.No wind49%29.95 "Hg4 mi
9:30 AM88 °FPassing clouds.3 mph52%29.95 "Hg4 mi
8:30 AM82 °FHaze.No wind74%29.95 "Hg2 mi
7:30 AM79 °FHaze.2 mph89%29.92 "Hg2 mi
6:30 AM77 °FHaze.3 mph89%29.92 "Hg2 mi
6:00 AM77 °FClear.1 mph89%29.89 "Hg4 mi
5:30 AM77 °FPassing clouds.3 mph89%29.89 "Hg4 mi
4:30 AM79 °FPassing clouds.7 mph84%29.89 "Hg4 mi
4:00 AM79 °FPassing clouds.6 mph84%29.89 "Hg4 mi
3:30 AM79 °FPassing clouds.3 mph84%29.86 "Hg4 mi
3:00 AM79 °FPassing clouds.5 mph84%29.89 "Hg4 mi
2:30 AM79 °FPassing clouds.8 mph84%29.89 "Hg4 mi
Weather by CustomWeather, © 2014

See weather overview